[[{"header":{"parameterUnit":"m.s-1","parameterCategory":1,"la1":30.2991,"la2":30.254,"lo1":-89.0895,"lo2":-89.0444,"dy":0.0017,"dx":0.0017,"nx":28,"ny":28,"refTime":"2023-08-31T03:00:00:Z","depth":0,"parameterNumber":2,"parameterNumberName":"U-component_of_WINDS"},"data":[0,0,0,0,0,0,0,0,0,0,0,0,0,0,0,0,0,0,0,0,0,0,0,0,0,0,0,0,0,0,0,0,0,0,0,0,0,0,0,0,0,0,0,0,0,0,0,0,0,0,0,0,0,0,0,0,0,0,-3.2551,-3.2552,0,-3.2698,-3.2699,-3.2701,-3.2699,-3.2697,-3.2695,-3.2693,-3.2849,-3.2855,-3.2861,0,0,0,0,0,0,0,0,0,0,0,0,0,-3.2274,-3.2279,-3.255,-3.2552,-3.2554,-3.2697,-3.2699,-3.2701,-3.2699,-3.2697,-3.2695,-3.2692,-3.2847,-3.2854,-3.2861,0,0,0,0,0,0,0,0,0,0,0,0,0,-3.2405,-3.228,-3.255,-3.257,-3.2574,-3.2697,-3.2699,-3.2702,-3.27,-3.2697,-3.2694,-3.2691,-3.2845,-3.2854,-3.2862,-3.2977,0,0,-3.289,-3.2894,0,0,0,0,0,0,0,0,-3.2397,-3.2415,-3.2566,-3.2569,-3.2573,-3.2677,-3.2659,-3.2794,-3.2701,-3.2652,-3.2693,-3.269,-3.2795,-3.2807,-3.2842,-3.2984,-3.2991,-3.2891,-3.2896,-3.29,-3.2902,0,0,0,0,0,0,0,-3.2388,-3.2409,-3.2609,-3.2568,-3.2572,-3.2574,-3.2589,-3.2684,-3.2738,-3.2656,-3.2656,-3.2673,-3.2796,-3.2833,-3.2845,-3.2993,-3.289,-3.2898,-3.2904,-3.2907,-3.3237,-3.324,0,0,0,0,0,0,-3.2374,-3.2401,-3.2604,-3.2613,-3.2476,-3.2581,-3.2598,-3.2647,-3.2737,-3.2748,-3.2676,-3.2673,-3.2819,-3.2835,-3.2851,-3.299,-3.29,-3.2908,-3.2913,-3.3233,-3.3238,-3.3241,0,0,0,0,0,0,-3.2368,-3.2392,-3.2598,-3.2507,-3.2534,-3.2589,-3.2643,-3.2651,-3.2688,-3.2752,-3.2762,-3.2703,-3.2817,-3.2838,-3.2945,-3.2995,-3.2912,-3.292,-3.323,-3.3235,-3.3239,-3.3269,0,0,0,0,0,0,-3.236,-3.239,-3.2433,-3.2508,-3.2538,-3.2688,-3.2646,-3.2656,-3.2703,-3.27,-3.278,-3.2791,-3.2817,-3.2932,-3.2954,-3.3006,-3.2928,-3.3225,-3.3232,-3.3238,-3.3263,-3.3274,-3.3283,0,0,0,0,0,-3.235,-3.2437,-3.2435,-3.246,-3.2593,-3.2691,-3.2709,-3.2735,-3.2707,-3.2751,-3.2792,-3.2788,-3.2986,-3.2943,-3.2968,-3.3023,-3.3222,-3.323,-3.3237,-3.3259,-3.3272,-3.3283,0,0,0,0,0,0,-3.2368,-3.2447,-3.2446,-3.2559,-3.2618,-3.2691,-3.2747,-3.2748,-3.2818,-3.2813,-3.2844,-3.2863,-3.2969,-3.3008,-3.2957,-3.3139,-3.3101,-3.3114,-3.3109,-3.3122,-3.3132,-3.3119,-3.2935,0,0,0,0,0,-3.2384,-3.2456,-3.2522,-3.2616,-3.2645,-3.2691,-3.2735,-3.275,-3.2813,-3.2839,-3.2888,-3.2951,-3.3028,-3.3077,-3.3151,-3.327,-3.3287,-3.3321,-3.333,-3.3338,-3.3348,-3.3413,-3.3428,-3.3266,-3.3266,-3.3266,0,0,-3.242,-3.2472,-3.2516,-3.262,-3.2668,-3.2743,-3.2712,-3.2793,-3.2849,-3.2852,-3.2954,-3.2993,-3.3066,-3.3179,-3.3231,-3.3214,-3.3398,-3.3348,-3.3354,-3.336,-3.3423,-3.3438,-3.3451,-3.3271,-3.327,-3.3269,0,0,-3.2522,-3.257,-3.2651,-3.27,-3.2771,-3.2801,-3.2821,-3.2894,-3.2919,-3.3022,-3.3026,-3.3095,-3.3226,-3.3277,-3.332,-3.3443,-3.3442,-3.3467,-3.3517,-3.358,-3.3593,-3.3604,-3.3646,-3.3661,-3.3477,-3.3477,-3.3477,0,-3.2558,-3.2669,-3.2694,-3.2774,-3.282,-3.2825,-3.2909,-3.2955,-3.3049,-3.3081,-3.3061,-3.3224,-3.3274,-3.3398,-3.3428,-3.3464,-3.3487,-3.3456,-3.3589,-3.36,-3.3612,-3.3652,-3.3668,-3.3479,-3.3479,-3.3479,-3.3479,0,-3.2708,-3.2785,-3.2843,-3.293,-3.2984,-3.3066,-3.3105,-3.3156,-3.3167,-3.3199,-3.3305,-3.3365,-3.345,-3.3482,-3.3494,-3.3608,-3.3595,-3.3582,-3.3544,-3.3629,-3.3667,-3.3683,-3.3483,-3.3482,-3.3481,-3.3481,0,0,-3.2824,-3.2924,-3.2945,-3.2984,-3.3064,-3.3125,-3.3208,-3.329,-3.3332,-3.3397,-3.3467,-3.3579,-3.3566,-3.3615,-3.3634,-3.369,-3.3781,-3.3669,-3.3672,-3.3686,-3.3909,-3.3917,-3.3934,-3.3782,-3.3785,-3.3787,-3.3902,0,-3.2934,-3.3077,-3.3103,-3.323,-3.3301,-3.3307,-3.3379,-3.3437,-3.347,-3.3537,-3.3575,-3.3652,-3.3631,-3.3661,-3.3716,-3.3758,-3.3826,-3.3751,-3.3848,-3.3851,-3.3826,-3.3955,-3.3963,-3.4069,-3.3918,-3.392,-3.3922,0,-3.308,-3.3145,-3.3278,-3.3348,-3.3379,-3.3443,-3.3519,-3.3583,-3.365,-3.367,-3.3725,-3.3737,-3.3825,-3.3785,-3.3906,-3.3854,-3.3896,-3.3923,-3.3928,-3.3936,-3.389,-3.3965,-3.4103,-3.4118,-3.3947,-3.3945,-3.3943,0,-3.3148,-3.3271,-3.3366,-3.34,-3.3484,-3.3528,-3.3566,-3.3629,-3.3676,-3.3745,-3.3776,-3.3855,-3.3897,-3.3959,-3.3992,-3.396,-3.4111,-3.4074,-3.413,-3.4129,-3.416,-3.4157,-3.4304,-3.4191,-3.419,-3.419,-3.419,0,-3.3267,-3.3347,-3.3397,-3.3456,-3.3546,-3.3576,-3.3666,-3.3704,-3.376,-3.3826,-3.3838,-3.3901,-3.3943,-3.4012,-3.404,-3.4135,-3.4155,-3.4174,-3.418,-3.4172,-3.4169,-3.4198,-3.4191,-3.4194,-3.4193,-3.4193,-3.4192,0,-3.3358,-3.3395,-3.3498,-3.3569,-3.3589,-3.3652,-3.3714,-3.3771,-3.3805,-3.3889,-3.3911,-3.3964,-3.4045,-3.4086,-3.4189,-3.4207,-3.4315,-3.4317,-3.4291,-3.4293,-3.4346,-3.4339,-3.4515,-3.4539,-3.4411,-3.4413,-3.4414,0,-3.343,-3.3491,-3.3568,-3.3612,-3.365,-3.3722,-3.3769,-3.3802,-3.3852,-3.3932,-3.398,-3.4062,-3.4129,-3.426,-3.4309,-3.4387,-3.4391,-3.4447,-3.4403,-3.4392,-3.4389,-3.4384,-3.439,-3.4454,-3.4455,-3.4456,-3.4457,0,-3.3552,-3.3567,-3.3634,-3.3708,-3.3764,-3.3825,-3.3884,-3.392,-3.3963,-3.4019,-3.4101,-3.4153,-3.4257,-3.4338,-3.442,-3.4461,-3.4466,-3.4471,-3.4488,-3.4479,-3.446,-3.4469,-3.431,-3.4466,-3.4465,-3.4465,-3.4464,-3.4464,-3.3635,-3.3689,-3.3751,-3.3826,-3.3874,-3.3929,-3.3985,-3.4025,-3.4094,-3.4179,-3.4195,-3.4283,-3.4348,-3.4458,-3.4502,-3.4572,-3.456,-3.4585,-3.459,-3.4595,-3.4597,-3.4451,-3.4588,-3.4588,-3.4587,-3.4587,-3.4587,0,-3.3757,-3.3796,-3.3865,-3.3946,-3.4005,-3.4004,-3.407,-3.4119,-3.4195,-3.4255,-3.432,-3.4415,-3.4494,-3.4549,-3.4629,-3.4675,-3.4679,-3.4695,-3.469,-3.4699,-3.4604,-3.4581,-3.4689,-3.4689,-3.4689,-3.4689,-3.4689,-3.4689,-3.3827,-3.3918,-3.3941,-3.4056,-3.4097,-3.418,-3.4218,-3.4269,-3.4316,-3.4421,-3.4485,-3.452,-3.4578,-3.4663,-3.4736,-3.475,-3.4779,-3.4794,-3.4808,-3.4717,-3.4706,-3.4696,-3.4674,-3.48,-3.48,-3.4897,-3.4898,-3.4898]},{"header":{"parameterUnit":"m.s-1","parameterCategory":1,"la1":30.2991,"la2":30.254,"lo1":-89.0895,"lo2":-89.0444,"dy":0.0017,"dx":0.0017,"nx":28,"ny":28,"refTime":"2023-08-31T03:00:00:Z","depth":0,"parameterNumber":3,"parameterNumberName":"V-component_of_WINDS"},"data":[0,0,0,0,0,0,0,0,0,0,0,0,0,0,0,0,0,0,0,0,0,0,0,0,0,0,0,0,0,0,0,0,0,0,0,0,0,0,0,0,0,0,0,0,0,0,0,0,0,0,0,0,0,0,0,0,0,0,1.1189,1.1191,0,1.1413,1.1415,1.1418,1.1445,1.1443,1.144,1.1438,1.1674,1.1682,1.169,0,0,0,0,0,0,0,0,0,0,0,0,0,1.079,1.0798,1.1188,1.1191,1.1194,1.1412,1.1416,1.1419,1.1445,1.1442,1.144,1.1437,1.1671,1.1681,1.1691,0,0,0,0,0,0,0,0,0,0,0,0,0,1.0984,1.08,1.1188,1.1233,1.124,1.1412,1.1416,1.1419,1.1446,1.1442,1.1439,1.1436,1.1668,1.168,1.1693,1.1836,0,0,1.1731,1.1736,0,0,0,0,0,0,0,0,1.0973,1.0999,1.1224,1.1231,1.1238,1.1397,1.1362,1.156,1.1447,1.1368,1.1438,1.1434,1.1585,1.1604,1.1654,1.1848,1.1858,1.1732,1.1739,1.1745,1.1748,0,0,0,0,0,0,0,1.096,1.0989,1.1277,1.1227,1.1236,1.1245,1.1269,1.1399,1.1493,1.1374,1.1377,1.1403,1.1588,1.1642,1.1659,1.1861,1.1732,1.1743,1.175,1.1755,1.2188,1.2192,0,0,0,0,0,0,1.0937,1.0978,1.127,1.1284,1.1094,1.1255,1.1282,1.135,1.1491,1.1509,1.1405,1.1403,1.1622,1.1645,1.1668,1.1848,1.1745,1.1756,1.1764,1.2184,1.2189,1.2193,0,0,0,0,0,0,1.0928,1.0963,1.1261,1.1132,1.117,1.1265,1.1342,1.1356,1.1409,1.1514,1.1532,1.1442,1.162,1.165,1.1795,1.1857,1.1762,1.1774,1.2179,1.2186,1.2191,1.2208,0,0,0,0,0,0,1.0917,1.0959,1.1013,1.1133,1.1177,1.1382,1.1345,1.1363,1.143,1.1429,1.1554,1.1571,1.162,1.1776,1.1807,1.1872,1.1783,1.2174,1.2182,1.2189,1.2203,1.2214,1.2224,0,0,0,0,0,1.0902,1.101,1.1016,1.1051,1.1246,1.1386,1.1411,1.1463,1.1435,1.1491,1.1559,1.1567,1.1844,1.179,1.1826,1.1896,1.2171,1.218,1.2189,1.2198,1.2212,1.2224,0,0,0,0,0,0,1.0897,1.1026,1.1034,1.1183,1.1273,1.139,1.1462,1.1476,1.1577,1.1573,1.1635,1.1663,1.1805,1.1865,1.1802,1.2044,1.2005,1.2022,1.2,1.2014,1.2025,1.2008,1.1794,0,0,0,0,0,1.0912,1.1012,1.1121,1.1242,1.1287,1.1367,1.1429,1.1462,1.1558,1.1597,1.1675,1.1771,1.188,1.195,1.2056,1.2211,1.2241,1.2277,1.2287,1.2296,1.231,1.24,1.2418,1.2223,1.2223,1.2223,0,0,1.0946,1.103,1.1089,1.1243,1.1317,1.1422,1.1399,1.151,1.159,1.1615,1.1756,1.1817,1.1928,1.2079,1.2149,1.2133,1.237,1.2307,1.2313,1.2323,1.2411,1.2429,1.2446,1.2229,1.2228,1.2227,0,0,1.1063,1.1134,1.1244,1.1318,1.143,1.1482,1.1509,1.1624,1.1665,1.1808,1.1829,1.1926,1.2111,1.219,1.2254,1.2402,1.2415,1.2435,1.2492,1.2578,1.2594,1.2608,1.2663,1.2682,1.2449,1.2449,1.2449,0,1.1092,1.1249,1.13,1.1411,1.148,1.1505,1.1619,1.1689,1.183,1.1878,1.1856,1.2091,1.2167,1.2339,1.2375,1.2425,1.246,1.2422,1.2587,1.2602,1.2616,1.2669,1.269,1.2451,1.245,1.245,1.245,0,1.1281,1.1389,1.1465,1.1599,1.1676,1.1788,1.1859,1.1931,1.1957,1.2012,1.2159,1.2251,1.2377,1.242,1.2447,1.2597,1.2583,1.2574,1.2536,1.2635,1.2687,1.2708,1.2453,1.2453,1.2452,1.2452,0,0,1.14,1.1561,1.1588,1.1651,1.1776,1.1862,1.1977,1.2098,1.2161,1.2257,1.2357,1.2514,1.2506,1.2579,1.2616,1.2691,1.2806,1.2673,1.2677,1.2697,1.2981,1.2988,1.3011,1.2815,1.2819,1.2822,1.2972,0,1.1533,1.1735,1.1785,1.1959,1.2062,1.2089,1.2189,1.2278,1.2334,1.2432,1.2494,1.2605,1.2585,1.263,1.2706,1.2776,1.2865,1.2766,1.2911,1.2916,1.2884,1.3038,1.3046,1.3183,1.2992,1.2996,1.2998,0,1.1715,1.1814,1.1998,1.2112,1.2157,1.2246,1.2363,1.2455,1.2558,1.2593,1.2675,1.2704,1.2828,1.2782,1.2955,1.2886,1.2949,1.2993,1.2999,1.3017,1.2964,1.3062,1.3228,1.325,1.303,1.3028,1.3025,0,1.1786,1.1966,1.2101,1.2153,1.2288,1.235,1.241,1.2509,1.258,1.2683,1.2731,1.2847,1.2911,1.3002,1.3063,1.3024,1.3232,1.3191,1.3268,1.3266,1.3312,1.3308,1.3493,1.3348,1.3348,1.3347,1.3347,0,1.1931,1.2043,1.2135,1.2218,1.2345,1.2403,1.2528,1.2589,1.2677,1.2775,1.2805,1.2896,1.297,1.3072,1.312,1.3258,1.3286,1.332,1.3332,1.3319,1.3315,1.3362,1.3355,1.3353,1.3352,1.3351,1.335,0,1.2033,1.2099,1.2247,1.2363,1.2395,1.2484,1.2585,1.2668,1.2724,1.2847,1.2879,1.2969,1.3091,1.316,1.3313,1.3346,1.35,1.3506,1.3465,1.3471,1.3544,1.3537,1.3768,1.3802,1.3632,1.3633,1.3634,0,1.2122,1.2209,1.2334,1.24,1.2461,1.2567,1.264,1.27,1.2775,1.29,1.2968,1.3091,1.3193,1.3387,1.3468,1.3586,1.3597,1.367,1.3615,1.36,1.3602,1.3597,1.3607,1.368,1.3681,1.3682,1.3683,0,1.2274,1.2302,1.2404,1.2518,1.2603,1.2697,1.2789,1.2843,1.2919,1.3002,1.3126,1.3205,1.3362,1.3485,1.361,1.3675,1.3694,1.37,1.3724,1.3713,1.3686,1.3704,1.3493,1.3695,1.3694,1.3693,1.3692,1.3692,1.2374,1.2454,1.2554,1.2668,1.2744,1.283,1.2914,1.2981,1.3085,1.3216,1.3246,1.3378,1.3481,1.3651,1.3719,1.3824,1.3812,1.3846,1.3856,1.3864,1.3868,1.3667,1.3847,1.3847,1.3847,1.3847,1.3846,0,1.253,1.2596,1.2699,1.2828,1.2918,1.2925,1.3029,1.3104,1.3219,1.3313,1.3412,1.3556,1.3676,1.3766,1.389,1.3957,1.3969,1.3988,1.3985,1.4,1.3871,1.3838,1.3976,1.3976,1.3976,1.3976,1.3976,1.3976,1.2621,1.2757,1.2797,1.2972,1.3039,1.3166,1.3225,1.3306,1.3382,1.354,1.364,1.3697,1.3791,1.3921,1.4033,1.4056,1.4102,1.412,1.4145,1.4023,1.4009,1.3996,1.3966,1.4128,1.4128,1.4266,1.4267,1.4268]}]]